Showing default

EXPRESS 80, 45986

Orbit data source: Space-Track

EXPRESS 80, 45986 is a payload satellite owned by KosSvyaz (CIS) in GEO that was launched on Thu, 30 Jul 2020 UTC via a PROTON-M/BRIZ-M launch vehicle from the Tyuratam Missile And Space Complex (TTMTR). Payload-class satellites include a variety of spacecraft equipped with specific instruments for various scientific and technological missions. These include communications satellites like Starlink; space stations such as the ISS; scientific satellites like the Hubble; Earth observation satellites from companies like Planet Labs, Umbra, and HawkEye 360; GPS; miniature CubeSats for education and research; and military/defense satellites.

Not visible in the next 10 days
Identifier
45986, 2020-053B
Orbit
GEO
Country
Flag of CISCIS
Related business
Manufacturer
Resehetnev ISS
Mission
Operational Commercial Communications
Bus & Motor
EKSPRESS-1000N, AOCS
Mass
2,110 kg wet, ~1,800 kg dry
Launch date (UTC)
2020-07-30 (5 years ago)
Launch vehicle
PROTON-M/BRIZ-M
Launch site
Tyuratam Missile And Space Complex (TTMTR)
Object type
Payload
Rocket body
Debris
Shape & HBR
Box + 2 Pan, Unknown HBR
Radar Cross Section
16.987 m², Large (>1 m²)

Expand to show TLE details & history
Last TLE update: 2 days ago

TLE from 2 days ago
0 EXPRESS 80
1 45986U 20053B   25307.65794672 -.00000123  00000-0  00000-0 0  9992
2 45986   0.0208 270.0891 0001928 132.4986 317.4672  1.00271272 19376
Epoch: 2025-11-03T15:47Z
TLE epoch observation values (Epoch: 2025-11-03T15:47:26.596Z)
Latitude
0.04364°
Longitude
79.983°
Altitude
35,780.204 km
Speed
3.075 km/s
True Right ascension
23h 59m 59s
True Declination
0° 02' 37"
Sunlit
Object was in daylight at epoch
Visualization orbit readout
Latitude
Unknown
Longitude
Unknown
Altitude
Unknown
Speed
Unknown
Apparent Right ascension
Unknown
Apparent Declination
Unknown
Sunlit
N/A
Visualization observer readout
Local Sidereal Time
04:54:01
Azimuth
Unknown
Elevation
Unknown
Doppler factor
Unknown
Orbital elements
Apogee altitude
35,795.939 km
Perigee altitude
35,779.68 km
Semi-major axis
42,165.946 km
Eccentricity
0.00019
Inclination
0.0208°
RAAN
270.0891°
Arg. of periapsis
132.4986°
True anomaly
317.45226°
Mean anomaly
317.4672°
Eccentric anomaly
317.45973°
Mean motion
0.25067 °/min
Orbital period
1,436.16 mins
BSTAR
0
Loading maneuver chart data...
Computing Atmospheric mass density...
Loading historical data...
Loading historical data...
Loading historical data...
Loading historical data...
Loading historical data...
Loading historical data...
Loading historical data...
Other satellites on launch #53 in the year 2020 (2020-07-30 UTC)

Documentation

Showing up to 5 results
|